Terminal Aerodrome Forecast
Issued by NWS Nashville, TN

Home | Current Version | Previous Version | Text Only | Print | Product List | Glossary On
Versions: 1 2 3 4 5 6 7 8 9 10 11 12 13 14 15 16 17 18 19 20 21
000
FTUS44 KOHX 200300 AAA
TAFBNA
TAF AMD
KBNA 200345Z 2004/2024 05004KT P6SM OVC120
     FM200600 05004KT P6SM -PLSN BKN050 OVC100
     FM201400 36004KT P6SM SCT040=

USA.gov is the U.S. government's official web portal to all federal, state and local government web resources and services.